Main page
METAR-TAF:

METAR-TAF

Airports :

Oil platform

D15-fa-1, Netherlands

latitude: 54-19-32N, longitude: 2-56-09E, elevation: 36 m

Current weather observation

The report was made 38 minutes ago, at 04:55 UTC
Wind 4 kt from the North/Northeast, varying between North and Northeast
Temperature 19°C
Humidity 88%
Pressure 1010 hPa
Visibility 10 km or more

METAR: EHDV 170455Z AUTO 02004KT 350V050 9999 NSC 19/17 Q1010 W///H///

Time: 07:33 (05:33 UTC)


TAF: missing

Weather observations and forecasts of more than 4000 airports (METAR and TAF reports).

The available stations are represented by yellow and red dots on the map.

Hover mouse over dot to see the name of the station.

Then click to see weather observations and forecasts.

To change the map : click on the green buttons with a black cross to zoom in, on the green button with a dash to zoom out, or on the green arrows for adjacent maps.


METAR-TAF: